Regional Weather Roundup
Issued by NWS

Home | Current Version | Previous Version | Text Only | Print | Product List | Glossary On
Versions: 1 2 3 4 5 6 7 8 9 10 11 12 13 14 15 16 17 18 19 20 21 22 23 24 25 26 27 28 29 30 31 32 33 34 35 36 37 38 39 40 41 42 43 44 45 46 47 48 49 50
000
ASUS43 KMPX 040910
RWRMN
WEATHER ROUNDUP FOR MINNESOTA
NATIONAL WEATHER SERVICE TWIN CITIES/CHANHASSEN MN
400 AM CDT FRI SEP 04 2015


NOTE: "FAIR" INDICATES FEW OR NO CLOUDS BELOW 12,000 FEET WITH NO
SIGNIFICANT WEATHER AND/OR OBSTRUCTIONS TO VISIBILITY. N/A MEANS
CURRENT SKY AND/OR WEATHER CONDITIONS ARE NOT AVAILABLE.

MNZ060>063-068>070-041000-
   Twin Cities Metro

CITY           SKY/WX    TMP DP  RH WIND       PRES   REMARKS
TWIN CITIES    CLEAR     72  68  87 SE13      29.91S
ST PAUL        CLEAR     71  68  90 SE10      29.92R
CRYSTAL        CLEAR     73  68  84 E7        29.89S
BLAINE         CLEAR     72  70  94 SE9       29.91S
LAKEVILLE      CLEAR     66  66 100 CALM      29.92R FOG
EDEN PRAIRIE   CLEAR     73  69  87 E8        29.89S
SOUTH ST PAUL  CLEAR     71  67  89 SE5       29.92S
LAKE ELMO      FAIR      70  66  88 E3        29.94S
$$
MNZ001>005-007-008-013>017-022>024-027-028-041000-
   Northwest Minnesota

CITY           SKY/WX    TMP DP  RH WIND       PRES   REMARKS
BEMIDJI        CLOUDY    67  64  88 SE12      29.89S
HALLOCK        PTCLDY    73  72  94 SE12      29.78S
ROSEAU         MOCLDY    70  64  83 SE7       29.84S
WARROAD        MOCLDY    70  66  88 S7        29.86R
THIEF RVR FALL MOCLDY    72  68  88 SE9       29.83S
CROOKSTON      PTCLDY    73  72  94 SE10      29.80S
FOSSTON        CLOUDY    72  66  83 SE9       29.85S
DETROIT LAKES  CLOUDY    72  70  94 SE15      29.85F
MOORHEAD       CLEAR     73  72  94 SE9       29.78F
PARK RAPIDS    MOCLDY    69  65  86 SE6       29.89R
MAHNOMEN       FAIR      73  69  89 SE10      29.83S
$$
MNZ006-009>011-018-025>026-041000-
   North Central Minnesota

CITY           SKY/WX    TMP DP  RH WIND       PRES   REMARKS
BAUDETTE       MOCLDY    66  61  84 SE10      29.88S
FLAG ISLAND    MOCLDY    70  64  83 S18       29.86R
INTL FALLS     PTCLDY    56  53  90 SE6       29.94S
WASKISH        MOCLDY    64  63  94 E6        29.90S
BIG FORK         N/A     61  57  88 SE5       29.95S
LONGVILLE      MOCLDY    63  61  94 SE5       29.92S
GRAND RAPIDS     N/A     61  55  82 SE7       29.96S
CRANE LAKE     CLEAR     48  48 100 CALM      29.99S
ORR            PTCLDY    59  54  82 CALM      29.95S
COOK           PTCLDY    55  54  94 E3        29.98S
WALKER         CLOUDY    66  63  89 E7        29.91S
$$
MNZ012-019>021-037-041000-
   Northeast Minnesota

CITY           SKY/WX    TMP DP  RH WIND       PRES   REMARKS
DULUTH         CLEAR     56  54  93 E5        30.00S
ELY            CLEAR     48  48 100 CALM      30.01S
HIBBING        CLEAR     55  52  89 SE5       29.98F
EVELETH        CLEAR     54  54 100 CALM      30.00S
DULUTH HARBOR  CLEAR     59  57  94 NE9       30.00S
TWO HARBORS    CLEAR     61  55  82 NE5       29.99S
SILVER BAY     CLEAR     57  55  94 CALM      30.00S
GRAND MARAIS     N/A     60  57  89 CALM      30.03R
G MARAIS ARPRT PTCLDY    59  54  82 E3        30.07R
$$
MNZ029>031-032-039>041-046>048-054>057-064-041000-
   West Central Minnesota

CITY           SKY/WX    TMP DP  RH WIND       PRES   REMARKS
FERGUS FALLS   CLEAR     73  73 100 SE9       29.80S
WHEATON        PTCLDY    72  70  94 E12       29.79F FOG
MORRIS         PTCLDY    75  73  94 SE10G16   29.81S FOG
ALEXANDRIA     CLOUDY    72  71  97 SE13      29.87S
ELBOW LAKE     FAIR      73  72  96 SE12G17   29.82S
WADENA         CLOUDY    70  66  88 SE8       29.87S
GLENWOOD       CLOUDY    72  72 100 E9        29.87R FOG
APPLETON       PTCLDY    75  72  88 SE9       29.79F
BENSON         MOCLDY    75  72  88 SE8       29.82S
ORTONVILLE     PTCLDY    73  72  94 SE9       29.79S
MADISON        PTCLDY    73  72  94 SE9       29.79F
WILLMAR        FAIR      73  73 100 SE8       29.86S
$$
MNZ033>034-036-042>043-049>051-058-059-041000-
   Central Minnesota

CITY           SKY/WX    TMP DP  RH WIND       PRES   REMARKS
ST CLOUD       CLEAR     70  68  93 E8        29.89S
SAUK CENTRE    CLOUDY    71  69  95 SE9       29.88S
PAYNESVILLE    CLOUDY    72  72  98 E10       29.88S
AITKIN         CLOUDY    64  59  82 E7        29.93R
PINE RIVER     PTCLDY    64  64 100 SE8       29.94S
BRAINERD       PTCLDY    67  65  93 VRB7      29.91S
STAPLES        MOCLDY    68  66  94 SE5       29.89R
LONG PRAIRIE   CLOUDY    68  68 100 E10       29.89R
LITTLE FALLS   PTCLDY    68  64  88 SE6       29.90R
LITCHFIELD     PTCLDY    73  73 100 SE7       29.89R FOG
BUFFALO        CLEAR     71  67  89 E6        29.90S
MAPLE LAKE     CLEAR     72  71  95 E3        29.90S
$$
MNZ037-044-045-052-053-041000-
   East Central Minnesota

CITY           SKY/WX    TMP DP  RH WIND       PRES   REMARKS
PRINCETON      CLEAR     70  66  88 E7        29.91S
MORA           CLEAR     64  63  94 CALM      29.95R
CAMBRIDGE      CLEAR     72  63  73 SE6       29.91R
RUSH CITY      PTCLDY    67  64  89 E3        29.94R
MOOSE LAKE     CLOUDY    57  55  94 NE3       29.95S
HINCKLEY       PTSUNNY   68  66  94 E6        29.95S
CLOQUET        MOCLDY    57  54  88 E5        29.98F
MCGREGOR       CLOUDY    61  59  94 E6        29.95S
$$
MNZ071>073-080-081-089-090-097-098-041000-
   Southwest Minnesota

CITY           SKY/WX    TMP DP  RH WIND       PRES   REMARKS
MONTEVIDEO     PTCLDY    73  73 100 S8        29.83S
GRANITE FALLS  MOCLDY    74  72  92 SE8       29.84S
CANBY          PTCLDY    71  70  95 SE8       29.81F FOG
MARSHALL       PTCLDY    72  66  83 SE9       29.83F
REDWOOD FALLS  PTCLDY    74  71  91 SE8       29.84S
OLIVIA         MOCLDY    72  70  94 SE8       29.85R
PIPESTONE      PTCLDY    73  70  88 S8        29.84S
WINDOM         PTCLDY    73  70  88 S8        29.87S
WORTHINGTON    PTCLDY    72  66  83 S10       29.87S
JACKSON        PTCLDY    72  70  94 S8        29.89S
TRACY          PTCLDY    75  71  89 S12       29.84S
SLAYTON        MOCLDY    70  70 100 CALM      29.87S
$$
MNZ065>067-074>077-082>085-091>093-041000-
   South Central Minnesota

CITY           SKY/WX    TMP DP  RH WIND       PRES   REMARKS
MANKATO        CLEAR     73  72  94 SE10      29.89S
NEW ULM        PTCLDY    73  72  94 S8        29.87R
ST JAMES       PTCLDY    73  72  94 SE6       29.88S
FAIRMONT       PTCLDY    72  64  78 S8        29.89R
GLENCOE        CLEAR     73  73 100 E7        29.88S FOG
FARIBAULT      CLEAR     73  72  94 SE5       29.92R
OWATONNA       CLEAR     73  70  88 SE8       29.92S
WASECA         CLEAR     72  70  94 E7        29.92S
ALBERT LEA     CLEAR     72  72 100 SE6       29.93R
$$
MNZ078>079-086>088-094>096-041000-
   Southeast Minnesota

CITY           SKY/WX    TMP DP  RH WIND       PRES   REMARKS
ROCHESTER      CLOUDY    72  72 100 SE8       29.96R FOG
RED WING       CLEAR     72  66  83 SE12      29.93R
STANTON        CLEAR     73  69  87 SE7       29.91R
DODGE CENTER   CLEAR     72  72 100 SE7       29.94S FOG
WINONA         CLEAR     70  64  83 SE6       29.97R
AUSTIN         CLEAR     72  70  94 SE3       29.94R
PRESTON        CLOUDY    73  71  94 SE7       29.98R FOG
$$
ABBREVIATIONS USED IN REMARKS
   TC - TEMPERATURES IN CELSIUS
  WCI - WIND CHILL INDEX
   HX - HEAT INDEX
  VSB - VISIBILITY
$$



USA.gov is the U.S. government's official web portal to all federal, state and local government web resources and services.